Location: Unspecified
(43.4680°N, 87.1740°E)
Time: 17:02:46
(UTC+00:00)

IRIDIUM 33 DEB - Visible Passes

Search period start: 21 October 2021 00:00
Search period end: 31 October 2021 00:00
Orbit: 556 x 582 km, 86.4° (Epoch: 20 October)

Date Brightness Start Highest point End Pass type
(mag) Time Alt. Az. Time Alt. Az. Time Alt. Az.
21 Oct ? 12:32:14 10° SW 12:35:27 22° WNW 12:38:42 10° NNW visible
21 Oct ? 22:32:36 10° NNE 22:36:30 36° E 22:40:21 10° SSE visible
22 Oct ? 12:34:15 10° WSW 12:37:08 18° WNW 12:40:04 10° NNW visible
22 Oct ? 22:34:07 10° N 22:38:08 43° E 22:42:07 10° SSE visible
23 Oct ? 12:36:19 10° WSW 12:38:47 16° WNW 12:41:18 10° NW visible
23 Oct ? 22:35:36 10° N 22:39:43 53° E 22:43:47 10° SSE visible
24 Oct ? 12:38:27 10° WSW 12:40:23 13° WNW 12:42:21 10° NW visible
24 Oct ? 22:37:03 10° N 22:41:13 65° E 22:45:21 10° SSE visible
25 Oct ? 12:40:53 10° W 12:41:57 11° WNW 12:43:01 10° WNW visible
25 Oct ? 22:38:28 10° N 22:42:40 79° E 22:46:50 10° S visible
26 Oct ? 22:39:51 10° N 22:44:03 86° W 22:48:12 10° S visible
27 Oct ? 21:08:20 10° ENE 21:08:29 10° ENE 21:08:39 10° ENE visible
27 Oct ? 22:41:11 10° N 22:45:22 71° W 22:49:30 10° S visible
28 Oct?21:14:26SE21:14:26SE21:05:57NNEvisible
28 Oct ? 22:50:43 10° SSW 22:50:43 10° SSW 22:41:54 - N visible
